Tracking 25648 objects as of 16-May-2022
HD Live streaming from Space Station
objects crossing your sky now

CZ-3A DEB

Track CZ-3A DEB now!
10-day predictions


NORAD ID: 35549
Int'l Code: 2007-003H
Perigee: 306.2 km
Apogee: 22,984.3 km
Inclination: 24.1 °
Period: 401.1 minutes
Semi major axis: 18016 km
RCS: 0.2518 m2 (medium)
Launch date: February 2, 2007
Source: People's Republic of China (PRC)
Launch site: Xichang Space Center, China (XSC)

Note: This is SATELLITE DEBRIS
aabbcc
Your satellite tracking list
Your tracking list is empty




NASA's NSSDC Master Catalog

Two Line Element Set (TLE):
1 35549U 07003H   22135.18821913  .00037737  00000-0  12305-1 0  9991
2 35549  24.0955   7.3688 6293790 211.3860  87.3979  3.59008935102796
Source of the keplerian elements: AFSPC